GW2108 Weather Reports


time (UTC)temp
C
wind
direction
speed
KPH
gust
KPH
rain 1hr
cm
rain 24hr
cm
rain mn
cm
humidity
%
barometer
mb
20260505093053 12 9 0.0 0.0 0.00 0.00 0.00 85 1013.6
20260505091616 12 9 0.0 0.0 0.00 0.00 0.00 85 1013.6
20260505090104 12 9 0.0 0.0 0.00 0.00 0.00 85 1013.4
20260505084508 12 9 0.0 0.0 0.00 0.00 0.00 86 1013.3
20260505083004 12 9 0.0 0.0 0.00 0.00 0.00 86 1013.3
20260505081502 12 9 0.0 0.0 0.00 0.00 0.00 86 1013.5
20260505080014 12 9 0.0 0.0 0.00 0.00 0.00 86 1013.4
20260505074507 12 9 0.0 0.0 0.00 0.00 0.00 86 1013.3
20260505073003 12 9 0.0 0.0 0.00 0.00 0.00 86 1013.2
20260505071506 12 9 0.0 0.0 0.00 0.00 0.00 87 1012.9
20260505070002 12 9 0.0 0.0 0.00 0.00 0.00 87 1012.8
20260505064508 12 9 0.0 0.0 0.00 0.00 0.00 86 1012.7
20260505063015 12 9 0.0 0.0 0.00 0.00 0.00 86 1012.6
20260505061503 12 9 0.0 0.0 0.00 0.00 0.00 85 1012.3
20260505060006 12 9 0.0 0.0 0.00 0.00 0.00 85 1012.3
20260505054513 12 9 0.0 0.0 0.00 0.00 0.00 85 1012.3
20260505053014 12 9 0.0 0.0 0.00 0.00 0.00 84 1012.1
20260505051508 12 9 0.0 0.0 0.00 0.00 0.00 84 1012.0
20260505041601 13 9 0.0 0.0 0.00 0.00 0.00 80 1011.5
20260505040034 13 9 0.0 0.0 0.00 0.00 0.00 79 1011.4
20260505034517 14 9 0.0 0.0 0.00 0.00 0.00 77 1011.2
20260505033054 15 9 0.0 0.0 0.00 0.00 0.00 76 1011.2
20260505031530 16 9 0.0 0.0 0.00 0.00 0.00 73 1011.0
20260505030056 16 9 0.0 0.0 0.00 0.00 0.00 72 1010.7
20260505024531 17 9 0.0 0.0 0.00 0.00 0.00 70 1010.6
20260505023058 17 9 0.0 0.0 0.00 0.00 0.00 68 1010.4
20260505021526 18 9 0.0 0.0 0.00 0.00 0.00 66 1010.3
20260505020013 19 9 0.0 0.0 0.00 0.00 0.00 64 1010.1
20260505014550 20 9 0.0 0.0 0.00 0.00 0.00 63 1010.1
20260505013048 20 9 0.0 0.0 0.00 0.00 0.00 61 1010.0
20260505011549 21 9 0.0 0.0 0.00 0.00 0.00 60 1010.2
20260505010024 21 9 0.0 0.0 0.00 0.00 0.00 58 1010.2
20260505004547 22 9 0.0 0.0 0.00 0.00 0.00 56 1010.0
20260505003022 22 9 0.0 0.0 0.00 0.00 0.00 53 1010.0
20260505001513 23 9 0.0 0.0 0.00 0.00 0.00 51 1010.0
20260505000005 23 9 0.0 0.0 0.00 0.00 0.00 50 1010.1
20260504234509 25 9 0.0 0.0 0.00 0.00 0.00 48 1010.0
20260504233004 25 9 0.0 0.0 0.00 0.00 0.00 49 1010.0
20260504231520 25 9 0.0 0.0 0.00 0.00 0.00 47 1010.1
20260504230021 26 9 0.0 0.0 0.00 0.00 0.00 45 1010.2
20260504224535 26 9 0.0 0.0 0.00 0.00 0.00 48 1010.5
20260504223108 26 9 0.0 0.0 0.00 0.00 0.00 48 1010.6
20260504221550 26 9 0.0 0.0 0.00 0.00 0.00 49 1010.7
20260504220018 25 9 0.0 0.0 0.00 0.00 0.00 49 1010.9
20260504214545 25 9 0.0 0.0 0.00 0.00 0.00 49 1010.9
20260504213103 25 9 0.0 0.0 0.00 0.00 0.00 51 1011.1
20260504211533 25 9 0.0 0.0 0.00 0.00 0.00 52 1011.1
20260504210021 25 9 0.0 0.0 0.00 0.00 0.00 51 1011.3
20260504204548 24 9 0.0 0.0 0.00 0.00 0.00 52 1011.4
20260504203059 24 9 0.0 0.0 0.00 0.00 0.00 52 1011.5
20260504201525 23 9 0.0 0.0 0.00 0.00 0.00 56 1011.4
20260504200017 23 9 0.0 0.0 0.00 0.00 0.00 56 1011.4
20260504194513 22 9 0.0 0.0 0.00 0.00 0.00 59 1011.4
20260504193006 22 9 0.0 0.0 0.00 0.00 0.00 59 1011.5
20260504191545 22 9 0.0 0.0 0.00 0.00 0.00 59 1011.8
20260504184537 21 9 0.0 0.0 0.00 0.00 0.00 62 1011.8
20260504183053 21 9 0.0 0.0 0.00 0.00 0.00 63 1012.0
20260504181542 20 9 0.0 0.0 0.00 0.00 0.00 66 1011.8
20260504180101 19 9 0.0 0.0 0.00 0.00 0.00 69 1011.9
20260504174531 18 9 0.0 0.0 0.00 0.00 0.00 71 1011.9
20260504173048 17 9 0.0 0.0 0.00 0.00 0.00 73 1011.8
20260504171504 16 9 0.0 0.0 0.00 0.00 0.00 76 1011.7
20260504120105 8 9 0.0 0.0 0.00 0.00 0.00 85 1009.9